User: anonymous   Login
Location: Unspecified
(0.0000°N, 0.0000°E)
Time: 16:40:46
(UTC+00:00)
Language:

GLOBAL-2 - Orbit

View from above orbital plane
View from above orbital plane
View from above satellite
View from above satellite

Ground track
Ground track

The orbit data is extracted from the following two-line orbital elements,

1 43812U 18099BG  22280.17644444  .00003467  00000-0  30791-3 0  9996
2 43812  97.6064 343.9750 0012126 252.6327 107.3569 14.96734100209368
Epoch (UTC): 07 October 2022 04:14:04
Eccentricity: 0.0012126
inclination: 97.6064°
perigee height: 568 km
apogee height: 585 km
right ascension of ascending node: 343.9750°
argument of perigee: 252.6327°
revolutions per day: 14.96734100
mean anomaly at epoch: 107.3569°
orbit number at epoch: 20936

The dashed part of the orbit path shows where the satellite is in the earth's shadow,  

DLR